Weather History for Provo, UT

Change the Weather History Date:

Sunday, October 10, 2010

  Actual Average Record
Temperature  
Mean Temperature 50 °F -  
Max Temperature 62 °F 65 °F 86 °F (1996)
Min Temperature 39 °F 37 °F 29 °F (1982)
Degree Days  
Heating Degree Days 14    
Moisture  
Dew Point 42 °F    
Average Humidity 83    
Maximum Humidity 100    
Minimum Humidity 45    
Precipitation  
Precipitation 0.00 in - - ()
Sea Level Pressure  
Sea Level Pressure 30.30 in    
Wind  
Wind Speed 2 mph (ESE)    
Max Wind Speed 6 mph    
Max Gust Speed -    
Visibility 11 miles    
Events      
Averages and records for this station are not official NWS values.
T = Trace of Precipitation, MM = Missing Value Source: NWS Daily Summary

Daily Weather History Graph

Daily Weather History Graph

Search for Another Location

Airport:

Trip Planner

Search our weather history database for the weather conditions in past years. The results will help you decide how hot, cold, wet, or windy it might be!

Date:

Astronomy

Oct. 10, 2010 Rise Set
Actual Time 7:32 AM MDT 6:54 PM MDT
Civil Twilight 7:05 AM MDT 7:21 PM MDT
Nautical Twilight 6:33 AM MDT 7:53 PM MDT
Astronomical Twilight 6:02 AM MDT 8:24 PM MDT
Moon 11:08 AM MDT (10/10) 8:40 PM MDT (10/10)
Length of Visible Light 12h 16m
Length of Day
11h 22m
Waxing Crescent, 12% of the Moon is Illuminated
Oct 10
Waxing Crescent
Oct 14
First Quarter
Oct 22
Full
Oct 30
Last Quarter
Nov 5
New

Hourly Weather History & Observations

Time (MDT) Temp. Windchill Dew Point Humidity Pressure Visibility Wind Dir Wind Speed Gust Speed Precip Events Conditions
12:15 AM 46.4 °F - 44.6 °F 93% 30.38 in 10.0 mi Calm Calm - N/A   Clear
12:35 AM 46.4 °F - 42.8 °F 87% 30.38 in 10.0 mi Calm Calm - N/A   Clear
12:55 AM 44.6 °F - 42.8 °F 93% 30.38 in 10.0 mi Calm Calm - N/A   Clear
1:15 AM 42.8 °F - 41.0 °F 93% 30.37 in 9.0 mi Calm Calm - N/A   Clear
1:35 AM 42.8 °F - 42.8 °F 100% 30.38 in 10.0 mi Calm Calm - N/A   Clear
1:55 AM 42.8 °F - 42.8 °F 100% 30.37 in 9.0 mi Calm Calm - N/A   Clear
2:15 AM 44.6 °F 43.1 °F 42.8 °F 93% 30.38 in 10.0 mi SE 3.5 mph - N/A   Clear
2:35 AM 41.0 °F 39.0 °F 39.2 °F 93% 30.38 in 10.0 mi SE 3.5 mph - N/A   Clear
2:55 AM 42.8 °F 41.1 °F 41.0 °F 93% 30.38 in 10.0 mi ESE 3.5 mph - N/A   Clear
3:15 AM 42.8 °F - 41.0 °F 93% 30.38 in 10.0 mi Calm Calm - N/A   Clear
3:35 AM 42.8 °F - 41.0 °F 93% 30.37 in 10.0 mi Calm Calm - N/A   Clear
3:55 AM 42.8 °F 41.1 °F 41.0 °F 93% 30.37 in 10.0 mi East 3.5 mph - N/A   Clear
4:15 AM 39.2 °F 37.0 °F 39.2 °F 100% 30.37 in 5.0 mi East 3.5 mph - N/A   Clear
4:35 AM 41.0 °F 39.0 °F 39.2 °F 93% 30.36 in 10.0 mi SE 3.5 mph - N/A   Clear
4:55 AM 39.2 °F - 37.4 °F 93% 30.36 in 10.0 mi Calm Calm - N/A   Clear
5:15 AM 39.2 °F 37.0 °F 39.2 °F 100% 30.36 in 10.0 mi NE 3.5 mph - N/A   Clear
5:35 AM 39.2 °F 37.0 °F 39.2 °F 100% 30.36 in 10.0 mi East 3.5 mph - N/A   Clear
5:55 AM 39.2 °F - 37.4 °F 93% 30.36 in 10.0 mi Calm Calm - N/A   Clear
6:15 AM 39.2 °F - 37.4 °F 93% 30.36 in 10.0 mi Calm Calm - N/A   Clear
6:35 AM 39.2 °F - 35.6 °F 87% 30.36 in 9.0 mi Calm Calm - N/A   Clear
6:55 AM 39.2 °F 37.0 °F 39.2 °F 100% 30.36 in 15.0 mi ESE 3.5 mph - N/A   Partly Cloudy
7:50 AM 39.2 °F - 37.4 °F 93% 30.36 in 15.0 mi Calm Calm - N/A   Scattered Clouds
8:47 AM 42.8 °F - 39.2 °F 87% 30.07 in 15.0 mi Calm Calm - N/A   Scattered Clouds
9:47 AM 48.2 °F - 41.0 °F 76% 30.37 in 15.0 mi SE 5.8 mph - N/A   Scattered Clouds
10:47 AM 53.6 °F - 41.0 °F 62% 30.36 in 15.0 mi SE 4.6 mph - N/A   Scattered Clouds
11:59 AM 53.6 °F - 42.8 °F 67% 30.33 in - Variable 4.6 mph - N/A   Partly Cloudy
12:52 PM 57.2 °F - 42.8 °F 59% 30.31 in 15.0 mi SW 4.6 mph - N/A   Partly Cloudy
1:54 PM 59.0 °F - 41.0 °F 51% 30.28 in 15.0 mi SSW 5.8 mph - N/A   Partly Cloudy
2:50 PM 60.8 °F - 42.8 °F 52% 30.24 in 15.0 mi Variable 5.8 mph - N/A   Partly Cloudy
3:50 PM 62.6 °F - 41.0 °F 45% 30.21 in 15.0 mi Variable 4.6 mph - N/A   Partly Cloudy
6:50 PM 60.8 °F - 44.6 °F 55% 30.18 in 15.0 mi Calm Calm - N/A   Partly Cloudy
7:50 PM 55.4 °F - 42.8 °F 63% 30.18 in 15.0 mi Calm Calm - N/A   Clear
9:15 PM 53.6 °F - 46.4 °F 77% 30.18 in 10.0 mi North 4.6 mph - N/A   Clear
9:35 PM 51.8 °F - 44.6 °F 76% 30.18 in 10.0 mi Calm Calm - N/A   Clear
9:55 PM 51.8 °F - 44.6 °F 76% 30.18 in 10.0 mi East 4.6 mph - N/A   Clear
10:15 PM 50.0 °F - 44.6 °F 82% 30.18 in 10.0 mi East 4.6 mph - N/A   Clear
10:35 PM 51.8 °F - 44.6 °F 76% 30.18 in 10.0 mi ESE 5.8 mph - N/A   Clear
10:55 PM 50.0 °F - 44.6 °F 82% 30.18 in 10.0 mi ESE 3.5 mph - N/A   Clear
11:15 PM 51.8 °F - 44.6 °F 76% 30.18 in 10.0 mi SE 3.5 mph - N/A   Clear
11:35 PM 50.0 °F - 44.6 °F 82% 30.19 in 10.0 mi SE 5.8 mph - N/A   Clear
11:55 PM 48.2 °F - 42.8 °F 82% 30.18 in 10.0 mi SSE 3.5 mph - N/A   Clear